Zurück zum Katalog

R5-S9

AktivAmateurfunkSSO
NORAD 69901·PAYLOAD·🇺🇸 United States

Gestartet Jul 7, 2026 von Vandenberg Space Force Base

Loading…

Nächste Überflüge (nächste 24 Stunden)

TLE

AktuellSource: Space-Track

Epoche: Sep 14, 2026, 12:39 UTC

1 69901U 26156AJ  26257.52736939  .00000844  00000-0  90623-4 0  9991
2 69901  97.7446 156.7458 0003041 257.1992 102.8887 14.91169392 10317

Verfolge R5-S9 in Echtzeit mit AllMySat

Download on the App Store